Tracking 20241 objects as of 26-Jan-2020
HD Live streaming from Space Station
objects crossing your sky now

RADUGA 25

Track RADUGA 25 now!
RADUGA 25 is classified as:


NORAD ID: 20499
Int'l Code: 1990-016A
Perigee: 35,784.0 km
Apogee: 35,805.7 km
Inclination: 14.6 °
Period: 1,436.2 minutes
Semi major axis: 42165 km
RCS: 7.9432 m2 (large)
Launch date: February 15, 1990
Source: Commonwealth of Independent States (former USSR) (CIS)
Launch site: TYURATAM MISSILE AND SPACE COMPLEX (TTMTR)
aabbcc
Your satellite tracking list
Your tracking list is empty




NASA's NSSDC Master Catalog

Two Line Element Set (TLE):
1 20499U 90016A   20025.59369809 +.00000063 +00000-0 +00000-0 0  9997
2 20499 014.5665 353.3453 0002565 358.5138 174.1553 01.00267814109498
Source of the keplerian elements: AFSPC